Weather History for Point Salines, Grenada

Change the Weather History Date:

Tuesday, October 11, 2011

  Actual Average Record
Temperature  
Mean Temperature 50 °F -  
Max Temperature 87 °F 85 °F 89 °F (2005)
Min Temperature 13 °F 76 °F 73 °F (2000)
Degree Days  
Heating Degree Days 15    
Moisture  
Dew Point 78 °F    
Average Humidity 84    
Maximum Humidity 100    
Minimum Humidity 66    
Precipitation  
Precipitation 0.00 in - - ()
Sea Level Pressure  
Sea Level Pressure 29.85 in    
Wind  
Wind Speed 8 mph ()    
Max Wind Speed 81 mph    
Max Gust Speed -    
Visibility 7.2 miles    
Events      
Averages and records for this station are not official NWS values.
T = Trace of Precipitation, MM = Missing Value Source: Averaged Metar Reports

Daily Weather History Graph

Daily Weather History Graph

Search for Another Location

Airport:

Trip Planner

Search our weather history database for the weather conditions in past years. The results will help you decide how hot, cold, wet, or windy it might be!

Date:

Astronomy

Oct. 11, 2011 Rise Set
Actual Time 5:56 AM AST 5:51 PM AST
Civil Twilight 5:35 AM AST 6:12 PM AST
Nautical Twilight 5:10 AM AST 6:37 PM AST
Astronomical Twilight 4:46 AM AST 7:01 PM AST
Moon 5:30 PM AST (10/11) 5:25 AM AST (10/11)
Length of Visible Light 12h 37m
Length of Day
11h 54m
Full, 100% of the Moon is Illuminated
Oct 11
Full
Oct 11
Full
Oct 19
Last Quarter
Oct 26
New
Nov 2
First Quarter

Hourly Weather History & Observations

Time (AST) Temp. Heat Index Dew Point Humidity Pressure Visibility Wind Dir Wind Speed Gust Speed Precip Events Conditions
12:00 AM 80.6 °F 88.1 °F 78.8 °F 94% 29.86 in 6.2 mi East 4.6 mph - N/A   Mostly Cloudy
1:00 AM 80.6 °F 88.1 °F 78.8 °F 94% 29.83 in 6.2 mi East 5.8 mph - N/A   Mostly Cloudy
2:00 AM 81 °F - 78 °F 88% 29.82 in 15 mi ESE 5.8 mph - -   Widespread Dust
2:00 AM 80.6 °F 88.1 °F 78.8 °F 94% 29.80 in 6.2 mi ESE 5.8 mph - N/A   Partly Cloudy
3:00 AM 80.6 °F 88.1 °F 78.8 °F 94% 29.80 in 6.2 mi Variable 2.3 mph - N/A   Partly Cloudy
4:00 AM 80.6 °F 88.1 °F 78.8 °F 94% 29.80 in 6.2 mi ESE 5.8 mph - N/A   Partly Cloudy
5:00 AM 80.6 °F 87.1 °F 77.0 °F 89% 29.83 in 6.2 mi East 4.6 mph - N/A   Partly Cloudy
6:00 AM 80.6 °F 88.1 °F 78.8 °F 94% 29.83 in 6.2 mi ESE 6.9 mph - N/A   Mostly Cloudy
7:00 AM 82.4 °F 90.9 °F 77.0 °F 84% 29.86 in 6.2 mi ESE 10.4 mph - N/A   Partly Cloudy
8:00 AM 85 °F - 85 °F 100%  in 8 mi ESE 10.4 mph - -  
8:00 AM 84.2 °F 94.1 °F 77.0 °F 79% 29.86 in 6.2 mi ESE 10.4 mph - N/A   Partly Cloudy
9:00 AM 86.0 °F 99.3 °F 78.8 °F 79% 29.89 in 6.2 mi ESE 13.8 mph - N/A   Partly Cloudy
10:00 AM 86.0 °F 99.3 °F 78.8 °F 79% 29.89 in 6.2 mi ESE 12.7 mph - N/A   Partly Cloudy
11:00 AM 86.0 °F 96.9 °F 77.0 °F 74% 29.89 in 6.2 mi ESE 12.7 mph - N/A   Partly Cloudy
12:00 PM 86.0 °F 99.3 °F 78.8 °F 79% 29.86 in 6.2 mi SE 12.7 mph - N/A   Partly Cloudy
1:00 PM 87.8 °F 102.5 °F 78.8 °F 75% 29.86 in 6.2 mi SE 12.7 mph - N/A   Partly Cloudy
2:00 PM 87 °F - 77 °F 66% 29.85 in 14 mi ESE 11.5 mph - -   Widespread Dust
2:00 PM 86.0 °F 96.9 °F 77.0 °F 74% 29.83 in 6.2 mi ESE 11.5 mph - N/A   Partly Cloudy
3:00 PM 87.8 °F 102.5 °F 78.8 °F 75% 29.83 in 6.2 mi ESE 11.5 mph - N/A   Partly Cloudy
4:00 PM 86.0 °F 96.9 °F 77.0 °F 74% 29.80 in 6.2 mi ESE 8.1 mph - N/A   Partly Cloudy
5:00 PM 13 °F - - %  in 12 mi SSE 80.6 mph - -  
5:00 PM 86.0 °F 96.9 °F 77.0 °F 74% 29.80 in 6.2 mi ESE 4.6 mph - N/A   Partly Cloudy
7:00 PM 80.6 °F 87.1 °F 77.0 °F 89% 29.83 in 6.2 mi ENE 4.6 mph - N/A   Scattered Clouds
8:00 PM 81 °F - 77 °F 84% 29.87 in 9 mi 2.3 mph - -   Widespread Dust
8:00 PM 80.6 °F 87.1 °F 77.0 °F 89% 29.86 in 6.2 mi Variable 2.3 mph - N/A   Mostly Cloudy
9:00 PM 82.4 °F 90.9 °F 77.0 °F 84% 29.89 in 6.2 mi ESE 4.6 mph - N/A   Scattered Clouds
10:00 PM 82.4 °F 92.4 °F 78.8 °F 89% 29.89 in 6.2 mi Variable 3.5 mph - N/A   Scattered Clouds
11:00 PM 81 °F - 77 °F 84% 29.91 in 9 mi 2.3 mph - -   Widespread Dust
11:00 PM 80.6 °F 87.1 °F 77.0 °F 89% 29.89 in 6.2 mi Variable 2.3 mph - N/A   Scattered Clouds